Location: Anciles
(42.5833°N, 0.5167°E)
Time: 08:43:43
(UTC+00:00)

Okean 1-7 - Pass Details

Date: 10 December 2019
Orbit: 591 x 619 km, 82.5° (Epoch: 21 January)

Event Time Altitude Azimuth Distance (km) Brightness Sun altitude
Rises 17:36:32 0° 170° (S) 2,844 6.6 -12.8°
Reaches altitude 10° 17:38:48 10° 164° (SSE) 1,950 5.7 -13.2°
Maximum altitude 17:42:53 43° 92° (E) 860 3.3 -13.9°
Enters shadow 17:46:47 11° 22° (NNE) 1,884 5.2 -14.6°
